User: anonymous   Login
Location: Caracas
(10.5033°N, 66.8422°W)
Time: 12:44:58
(UTC-04:00)
Language:

Hubble Space Telescope - Orbit

View from above orbital plane
View from above orbital plane
View from above satellite
View from above satellite

Ground track
Ground track

The orbit data is extracted from the following two-line orbital elements,

1 20580U 90037B   18202.58115177 +.00000363 +00000-0 +11206-4 0  9998
2 20580 028.4684 247.7412 0002827 145.2869 345.3171 15.09067572350587
Epoch (UTC): 21 July 2018 13:56:51
Eccentricity: 0.0002827
inclination: 28.4684°
perigee height: 537 km
apogee height: 541 km
right ascension of ascending node: 247.7412°
argument of perigee: 145.2869°
revolutions per day: 15.09067572
mean anomaly at epoch: 345.3171°
orbit number at epoch: 35058

The dashed part of the orbit path shows where the satellite is in the earth's shadow,  

DLR